GFSFLT1_prec_precacc_279.txt.gz
Total_Precipitation_Accumulation
0.00 0.01 0.03 0.04 0.09 0.38 0.79 1.21 1.76 3.06 2.33 1.44 0.93 0.85 0.77 0.75 0.86 0.90 1.45 0.96 0.91 0.95 0.56 0.49 0.42 0.25 0.15 0.14 0.13 0.19 0.13 0.19
0.01 0.01 0.04 0.03 0.16 0.53 0.85 0.92 1.08 1.12 0.68 0.53 0.52 0.64 0.96 0.95 0.96 0.80 1.45 1.20 0.79 1.03 1.14 0.66 0.57 0.37 0.27 0.20 0.25 0.29 0.38 0.35
0.01 0.05 0.11 0.18 0.33 0.38 0.26 0.15 0.12 0.26 0.35 0.38 0.38 0.41 0.63 0.74 1.24 0.90 1.10 1.29 0.69 0.67 0.98 1.02 0.94 0.66 0.67 0.64 0.53 0.43 0.38 0.52
0.04 0.06 0.07 0.06 0.04 0.10 0.08 0.09 0.09 0.11 0.17 0.26 0.35 0.39 0.47 0.65 1.27 1.32 0.94 1.29 0.92 0.60 0.78 0.89 0.94 0.81 0.73 0.60 0.63 0.59 0.53 0.40
0.01 0.01 0.02 0.01 0.07 0.03 0.09 0.16 0.19 0.15 0.17 0.15 0.18 0.22 0.26 0.38 0.80 1.20 1.15 1.10 0.98 0.74 0.72 0.78 0.89 0.70 0.61 0.47 0.48 0.56 0.62 0.43
0.05 0.10 0.04 0.03 0.04 0.09 0.16 0.18 0.32 0.40 0.40 0.25 0.28 0.24 0.29 0.37 0.64 1.21 1.37 1.29 1.41 1.15 1.02 1.12 0.97 0.96 0.71 0.64 0.58 0.65 0.61 0.48
0.35 0.18 0.04 0.02 0.07 0.14 0.24 0.23 0.32 0.49 0.63 0.59 0.45 0.45 0.36 0.34 0.49 1.11 1.41 1.55 1.53 1.55 1.85 1.82 1.59 1.41 1.41 1.10 0.93 0.79 0.62 0.58
0.19 0.17 0.10 0.09 0.15 0.23 0.36 0.36 0.44 0.59 0.65 0.79 0.70 0.52 0.53 0.41 0.37 0.53 1.07 1.67 1.87 1.51 1.52 2.02 1.97 1.76 1.65 1.56 1.66 1.60 1.32 1.24
0.22 0.20 0.15 0.16 0.16 0.29 0.48 0.54 0.47 0.56 0.58 0.66 0.74 0.68 0.51 0.56 0.54 0.60 0.55 0.94 1.62 2.32 1.95 1.76 1.93 1.81 2.20 2.39 2.34 2.46 2.48 2.41
0.40 0.37 0.22 0.17 0.17 0.27 0.46 0.50 0.40 0.52 0.58 0.62 0.77 0.89 0.83 0.77 1.01 1.17 1.19 1.39 1.75 2.74 3.44 3.24 3.09 3.16 2.73 2.86 2.97 2.79 2.74 2.61
0.63 0.68 0.44 0.25 0.19 0.33 0.46 0.43 0.50 0.72 1.14 1.22 1.30 1.26 1.14 1.11 1.25 1.82 2.13 1.67 2.06 2.11 2.71 3.59 3.86 3.74 3.71 3.41 3.27 2.83 2.72 2.60
0.91 0.96 0.75 0.45 0.31 0.37 0.47 0.54 0.52 0.65 1.07 1.59 1.85 2.07 2.28 2.25 2.20 2.52 2.79 2.39 2.52 3.16 2.94 2.91 3.36 3.48 4.05 4.11 3.64 3.38 3.20 2.91
1.30 1.20 0.87 0.64 0.52 0.41 0.33 0.54 0.83 0.72 0.89 1.61 2.05 2.30 2.76 3.22 3.32 3.32 3.98 4.35 3.69 3.69 3.53 2.85 2.54 2.56 2.96 3.90 3.76 3.23 2.98 2.66
1.44 1.93 1.58 0.95 0.68 0.60 0.52 0.48 0.73 0.86 1.12 1.54 2.51 2.86 2.81 2.98 3.02 3.10 3.55 4.05 3.32 3.47 3.39 3.17 2.76 2.64 2.75 2.77 3.52 3.59 2.94 2.68
1.72 1.97 2.24 1.59 1.39 1.15 0.91 0.75 0.75 0.92 1.00 1.37 1.60 2.07 2.42 2.53 2.82 3.10 3.85 4.01 4.33 4.26 4.27 3.23 2.85 2.66 2.40 2.26 2.34 2.84 3.04 2.68
1.23 1.34 1.92 1.61 1.42 1.25 0.94 0.84 0.85 0.79 0.78 1.01 1.54 1.50 1.80 1.83 1.99 2.41 2.75 3.24 3.72 4.31 4.61 3.93 2.88 2.83 2.80 2.55 2.46 2.47 2.85 3.16
1.37 1.17 1.10 1.05 0.90 0.84 0.76 0.85 0.83 0.96 0.94 0.82 0.93 1.09 1.27 1.55 1.56 1.67 1.78 1.97 2.11 2.62 3.22 4.05 3.80 3.03 3.22 3.01 2.74 2.52 2.60 2.87
1.24 1.08 0.98 0.84 0.62 0.62 0.71 0.66 0.70 0.56 0.86 0.91 0.75 0.86 1.09 1.04 1.28 1.49 1.36 1.33 1.65 1.78 1.93 2.59 3.70 3.69 4.06 3.71 3.58 2.55 2.40 2.56
1.15 0.75 0.58 0.44 0.40 0.41 0.51 0.63 0.57 0.60 0.56 0.55 0.79 0.70 0.60 0.69 0.82 1.03 1.26 1.56 1.56 1.47 1.57 1.61 1.99 2.73 3.93 4.12 4.78 4.12 2.91 2.65

GFSFLT1_prec_precacc_282.txt.gz
Total_Precipitation_Accumulation
0.00 0.01 0.03 0.04 0.09 0.38 0.79 1.21 1.76 3.06 2.33 1.45 0.97 0.94 0.85 0.86 0.93 0.90 1.45 0.96 0.91 0.95 0.56 0.49 0.42 0.25 0.15 0.14 0.13 0.19 0.13 0.19
0.01 0.01 0.04 0.03 0.16 0.53 0.85 0.92 1.08 1.12 0.68 0.54 0.54 0.68 1.00 1.03 1.01 0.83 1.47 1.20 0.79 1.03 1.14 0.66 0.57 0.37 0.27 0.20 0.25 0.29 0.38 0.35
0.01 0.05 0.11 0.18 0.33 0.38 0.26 0.15 0.12 0.26 0.35 0.39 0.39 0.44 0.68 0.82 1.34 0.96 1.12 1.30 0.70 0.67 0.98 1.02 0.94 0.66 0.67 0.64 0.53 0.43 0.38 0.52
0.04 0.06 0.07 0.06 0.04 0.10 0.08 0.09 0.09 0.11 0.17 0.26 0.35 0.40 0.50 0.72 1.39 1.43 1.04 1.34 0.94 0.60 0.78 0.90 0.94 0.81 0.73 0.60 0.63 0.59 0.53 0.40
0.01 0.01 0.02 0.01 0.07 0.03 0.09 0.16 0.19 0.15 0.17 0.15 0.18 0.22 0.27 0.43 0.86 1.27 1.34 1.30 1.13 0.77 0.73 0.79 0.91 0.72 0.62 0.47 0.48 0.56 0.62 0.43
0.05 0.10 0.04 0.03 0.04 0.09 0.16 0.18 0.32 0.40 0.40 0.25 0.28 0.24 0.30 0.39 0.69 1.27 1.48 1.74 1.84 1.27 1.08 1.18 1.01 0.99 0.73 0.64 0.58 0.65 0.61 0.48
0.35 0.18 0.04 0.02 0.07 0.14 0.24 0.23 0.32 0.49 0.63 0.59 0.45 0.45 0.36 0.34 0.49 1.13 1.46 1.78 2.30 2.60 2.32 2.00 1.63 1.43 1.42 1.11 0.93 0.79 0.62 0.58
0.19 0.17 0.10 0.09 0.15 0.23 0.36 0.36 0.44 0.59 0.65 0.79 0.70 0.52 0.53 0.41 0.37 0.53 1.08 1.75 2.07 1.96 2.20 2.33 2.05 1.79 1.68 1.59 1.67 1.60 1.32 1.24
0.22 0.20 0.15 0.16 0.16 0.29 0.48 0.54 0.47 0.56 0.58 0.66 0.74 0.68 0.51 0.56 0.54 0.61 0.56 0.95 1.67 2.49 2.21 2.01 2.06 1.87 2.25 2.43 2.36 2.47 2.48 2.41
0.40 0.37 0.22 0.17 0.17 0.27 0.46 0.50 0.40 0.52 0.58 0.62 0.77 0.89 0.83 0.77 1.01 1.17 1.20 1.39 1.75 2.74 3.50 3.38 3.25 3.31 2.84 2.94 3.02 2.84 2.77 2.61
0.63 0.68 0.44 0.25 0.19 0.33 0.46 0.43 0.50 0.72 1.14 1.22 1.30 1.26 1.14 1.11 1.25 1.82 2.13 1.67 2.06 2.11 2.71 3.61 3.94 3.90 3.89 3.62 3.40 2.88 2.79 2.62
0.91 0.96 0.75 0.45 0.31 0.37 0.47 0.54 0.52 0.65 1.07 1.59 1.85 2.07 2.28 2.25 2.20 2.52 2.79 2.39 2.52 3.16 2.94 2.91 3.37 3.51 4.18 4.33 3.82 3.49 3.28 2.98
1.30 1.20 0.87 0.64 0.52 0.41 0.33 0.54 0.83 0.72 0.89 1.61 2.05 2.30 2.76 3.22 3.32 3.32 3.98 4.35 3.69 3.69 3.53 2.85 2.54 2.56 2.96 3.94 3.88 3.40 3.15 2.77
1.44 1.93 1.58 0.95 0.68 0.60 0.52 0.48 0.73 0.86 1.12 1.54 2.51 2.86 2.81 2.98 3.02 3.10 3.55 4.05 3.32 3.47 3.39 3.18 2.76 2.64 2.75 2.77 3.54 3.65 3.05 2.82
1.72 1.97 2.24 1.59 1.39 1.15 0.91 0.75 0.75 0.92 1.00 1.37 1.60 2.07 2.42 2.53 2.82 3.10 3.85 4.01 4.33 4.26 4.27 3.23 2.85 2.66 2.40 2.26 2.34 2.85 3.07 2.76
1.23 1.34 1.92 1.61 1.42 1.25 0.94 0.84 0.85 0.79 0.78 1.01 1.54 1.50 1.80 1.83 1.99 2.41 2.75 3.24 3.72 4.31 4.61 3.93 2.88 2.83 2.81 2.55 2.46 2.47 2.85 3.18
1.37 1.17 1.10 1.05 0.90 0.84 0.76 0.85 0.83 0.96 0.94 0.82 0.93 1.09 1.27 1.55 1.56 1.67 1.78 1.97 2.11 2.62 3.22 4.05 3.80 3.04 3.22 3.01 2.74 2.52 2.60 2.87
1.24 1.08 0.98 0.84 0.62 0.62 0.71 0.66 0.70 0.56 0.86 0.91 0.75 0.86 1.09 1.04 1.28 1.49 1.36 1.33 1.65 1.78 1.93 2.59 3.70 3.69 4.06 3.71 3.58 2.55 2.40 2.56
1.15 0.75 0.58 0.44 0.40 0.41 0.51 0.63 0.57 0.60 0.56 0.55 0.79 0.70 0.60 0.69 0.82 1.03 1.26 1.56 1.56 1.47 1.57 1.61 1.99 2.73 3.93 4.12 4.78 4.12 2.91 2.65

GFSFLT1_prec_precacc_288.txt.gz
Total_Precipitation_Accumulation
0.00 0.01 0.03 0.04 0.09 0.38 0.79 1.21 1.76 3.06 2.33 1.45 0.97 0.95 0.92 1.08 1.27 1.37 2.00 1.46 1.32 1.13 0.63 0.51 0.42 0.25 0.15 0.14 0.13 0.19 0.13 0.19
0.01 0.01 0.04 0.03 0.16 0.53 0.85 0.92 1.08 1.12 0.68 0.54 0.54 0.68 1.01 1.05 1.09 1.16 2.31 2.34 1.68 1.78 1.65 0.78 0.61 0.38 0.27 0.20 0.25 0.29 0.38 0.35
0.01 0.05 0.11 0.18 0.33 0.38 0.26 0.15 0.12 0.26 0.35 0.39 0.39 0.44 0.68 0.82 1.37 1.07 1.36 1.94 1.86 1.30 1.60 1.50 1.14 0.77 0.70 0.65 0.53 0.43 0.38 0.52
0.04 0.06 0.07 0.06 0.04 0.10 0.08 0.09 0.09 0.11 0.17 0.26 0.35 0.40 0.50 0.72 1.40 1.47 1.15 1.55 1.44 1.26 1.32 1.49 1.82 1.37 0.87 0.64 0.64 0.60 0.54 0.40
0.01 0.01 0.02 0.01 0.07 0.03 0.09 0.16 0.19 0.15 0.17 0.15 0.18 0.22 0.27 0.43 0.86 1.27 1.35 1.36 1.34 1.42 1.71 1.56 1.41 1.41 1.07 0.64 0.52 0.58 0.63 0.43
0.05 0.10 0.04 0.03 0.04 0.09 0.16 0.18 0.32 0.40 0.40 0.25 0.28 0.24 0.30 0.39 0.69 1.27 1.49 1.76 1.98 1.78 1.80 2.04 1.87 1.50 1.32 1.25 0.89 0.73 0.62 0.49
0.35 0.18 0.04 0.02 0.07 0.14 0.24 0.23 0.32 0.49 0.63 0.59 0.45 0.45 0.36 0.34 0.49 1.13 1.46 1.78 2.31 2.67 2.74 2.68 2.33 1.99 1.91 1.75 1.75 1.33 0.82 0.62
0.19 0.17 0.10 0.09 0.15 0.23 0.36 0.36 0.44 0.59 0.65 0.79 0.70 0.52 0.53 0.41 0.37 0.53 1.08 1.75 2.07 1.97 2.48 2.90 2.96 3.02 2.76 2.38 2.42 2.32 1.89 1.74
0.22 0.20 0.15 0.16 0.16 0.29 0.48 0.54 0.47 0.56 0.58 0.66 0.74 0.68 0.51 0.56 0.54 0.61 0.56 0.95 1.67 2.49 2.24 2.24 2.39 2.28 2.98 3.30 3.23 3.39 3.56 3.52
0.40 0.37 0.22 0.17 0.17 0.27 0.46 0.50 0.40 0.52 0.58 0.62 0.77 0.89 0.83 0.77 1.01 1.17 1.20 1.39 1.75 2.74 3.50 3.40 3.32 3.45 3.07 3.35 3.64 3.62 3.67 3.54
0.63 0.68 0.44 0.25 0.19 0.33 0.46 0.43 0.50 0.72 1.14 1.22 1.30 1.26 1.14 1.11 1.25 1.82 2.13 1.67 2.06 2.11 2.71 3.61 3.94 3.92 3.96 3.72 3.54 3.16 3.30 3.11
0.91 0.96 0.75 0.45 0.31 0.37 0.47 0.54 0.52 0.65 1.07 1.59 1.85 2.07 2.28 2.25 2.20 2.52 2.79 2.39 2.52 3.16 2.94 2.91 3.37 3.51 4.20 4.40 3.99 3.75 3.53 3.30
1.30 1.20 0.87 0.64 0.52 0.41 0.33 0.54 0.83 0.72 0.89 1.61 2.05 2.30 2.76 3.22 3.32 3.32 3.98 4.35 3.69 3.69 3.53 2.85 2.54 2.56 2.97 3.95 3.90 3.48 3.47 3.31
1.44 1.93 1.58 0.95 0.68 0.60 0.52 0.48 0.73 0.86 1.12 1.54 2.51 2.86 2.81 2.98 3.02 3.10 3.55 4.05 3.32 3.47 3.39 3.18 2.76 2.65 2.75 2.77 3.54 3.65 3.06 2.87
1.72 1.97 2.24 1.59 1.39 1.15 0.91 0.75 0.75 0.92 1.00 1.37 1.60 2.07 2.42 2.53 2.82 3.10 3.85 4.01 4.33 4.26 4.27 3.23 2.85 2.66 2.40 2.26 2.34 2.85 3.07 2.76
1.23 1.34 1.92 1.61 1.42 1.25 0.94 0.84 0.85 0.79 0.78 1.01 1.54 1.50 1.80 1.83 1.99 2.41 2.75 3.24 3.72 4.31 4.61 3.93 2.88 2.83 2.81 2.55 2.46 2.47 2.85 3.18
1.37 1.17 1.10 1.05 0.90 0.84 0.76 0.85 0.83 0.96 0.94 0.82 0.93 1.09 1.27 1.55 1.56 1.67 1.78 1.97 2.11 2.62 3.22 4.05 3.80 3.04 3.22 3.01 2.74 2.52 2.60 2.87
1.24 1.08 0.98 0.84 0.62 0.62 0.71 0.66 0.70 0.56 0.86 0.91 0.75 0.86 1.09 1.04 1.28 1.49 1.36 1.33 1.65 1.78 1.93 2.59 3.70 3.69 4.06 3.71 3.58 2.55 2.40 2.56
1.15 0.75 0.58 0.44 0.40 0.41 0.51 0.63 0.57 0.60 0.56 0.55 0.79 0.70 0.60 0.69 0.82 1.03 1.26 1.56 1.56 1.47 1.57 1.61 1.99 2.73 3.93 4.12 4.78 4.12 2.91 2.65

GFSFLT1_prec_precacc_291.txt.gz
Total_Precipitation_Accumulation
0.00 0.01 0.03 0.04 0.09 0.38 0.79 1.21 1.76 3.06 2.33 1.45 0.97 0.95 0.92 1.08 1.28 1.42 2.12 1.63 1.87 1.80 1.09 0.81 0.53 0.27 0.15 0.14 0.14 0.19 0.13 0.19
0.01 0.01 0.04 0.03 0.16 0.53 0.85 0.92 1.08 1.12 0.68 0.54 0.54 0.68 1.01 1.05 1.09 1.16 2.31 2.35 1.80 2.30 2.73 1.58 1.23 0.57 0.30 0.20 0.27 0.32 0.38 0.35
0.01 0.05 0.11 0.18 0.33 0.38 0.26 0.15 0.12 0.26 0.35 0.39 0.39 0.44 0.68 0.82 1.37 1.07 1.36 1.94 1.86 1.32 1.66 1.66 1.36 1.04 0.90 0.73 0.55 0.46 0.40 0.53
0.04 0.06 0.07 0.06 0.04 0.10 0.08 0.09 0.09 0.11 0.17 0.26 0.35 0.40 0.50 0.72 1.40 1.47 1.15 1.55 1.44 1.26 1.33 1.51 1.91 1.80 1.40 1.17 0.93 0.69 0.58 0.46
0.01 0.01 0.02 0.01 0.07 0.03 0.09 0.16 0.19 0.15 0.17 0.15 0.18 0.22 0.27 0.43 0.86 1.27 1.35 1.36 1.34 1.42 1.71 1.56 1.43 1.53 1.33 1.07 1.09 1.00 0.82 0.52
0.05 0.10 0.04 0.03 0.04 0.09 0.16 0.18 0.32 0.40 0.40 0.25 0.28 0.24 0.30 0.39 0.69 1.27 1.49 1.76 1.98 1.78 1.80 2.04 1.87 1.51 1.38 1.39 1.10 1.18 1.35 0.98
0.35 0.18 0.04 0.02 0.07 0.14 0.24 0.23 0.32 0.49 0.63 0.59 0.45 0.45 0.36 0.34 0.49 1.13 1.46 1.78 2.31 2.67 2.74 2.68 2.33 1.99 1.92 1.75 1.88 1.70 1.17 1.17
0.19 0.17 0.10 0.09 0.15 0.23 0.36 0.36 0.44 0.59 0.65 0.79 0.70 0.52 0.53 0.41 0.37 0.53 1.08 1.75 2.07 1.97 2.48 2.90 2.96 3.02 2.76 2.38 2.43 2.36 2.09 2.12
0.22 0.20 0.15 0.16 0.16 0.29 0.48 0.54 0.47 0.56 0.58 0.66 0.74 0.68 0.51 0.56 0.54 0.61 0.56 0.95 1.67 2.49 2.24 2.24 2.39 2.28 2.98 3.31 3.24 3.39 3.56 3.55
0.40 0.37 0.22 0.17 0.17 0.27 0.46 0.50 0.40 0.52 0.58 0.62 0.77 0.89 0.83 0.77 1.01 1.17 1.20 1.39 1.75 2.74 3.50 3.40 3.32 3.45 3.07 3.35 3.64 3.62 3.67 3.55
0.63 0.68 0.44 0.25 0.19 0.33 0.46 0.43 0.50 0.72 1.14 1.22 1.30 1.26 1.14 1.11 1.25 1.82 2.13 1.67 2.06 2.11 2.71 3.61 3.94 3.92 3.96 3.72 3.54 3.16 3.30 3.11
0.91 0.96 0.75 0.45 0.31 0.37 0.47 0.54 0.52 0.65 1.07 1.59 1.85 2.07 2.28 2.25 2.20 2.52 2.79 2.39 2.52 3.16 2.94 2.91 3.37 3.51 4.20 4.40 3.99 3.75 3.53 3.30
1.30 1.20 0.87 0.64 0.52 0.41 0.33 0.54 0.83 0.72 0.89 1.61 2.05 2.30 2.76 3.22 3.32 3.32 3.98 4.35 3.69 3.69 3.53 2.85 2.54 2.56 2.97 3.95 3.90 3.48 3.47 3.31
1.44 1.93 1.58 0.95 0.68 0.60 0.52 0.48 0.73 0.86 1.12 1.54 2.51 2.86 2.81 2.98 3.02 3.10 3.55 4.05 3.32 3.47 3.39 3.18 2.76 2.65 2.75 2.77 3.54 3.65 3.06 2.87
1.72 1.97 2.24 1.59 1.39 1.15 0.91 0.75 0.75 0.92 1.00 1.37 1.60 2.07 2.42 2.53 2.82 3.10 3.85 4.01 4.33 4.26 4.27 3.23 2.85 2.66 2.40 2.26 2.34 2.85 3.07 2.76
1.23 1.34 1.92 1.61 1.42 1.25 0.94 0.84 0.85 0.79 0.78 1.01 1.54 1.50 1.80 1.83 1.99 2.41 2.75 3.24 3.72 4.31 4.61 3.93 2.88 2.83 2.81 2.55 2.46 2.47 2.85 3.18
1.37 1.17 1.10 1.05 0.90 0.84 0.76 0.85 0.83 0.96 0.94 0.82 0.93 1.09 1.27 1.55 1.56 1.67 1.78 1.97 2.11 2.62 3.22 4.05 3.80 3.04 3.22 3.01 2.74 2.52 2.60 2.87
1.24 1.08 0.98 0.84 0.62 0.62 0.71 0.66 0.70 0.56 0.86 0.91 0.75 0.86 1.09 1.04 1.28 1.49 1.36 1.33 1.65 1.78 1.93 2.59 3.70 3.69 4.06 3.71 3.58 2.55 2.40 2.56
1.15 0.75 0.58 0.44 0.40 0.41 0.51 0.63 0.57 0.60 0.56 0.55 0.79 0.70 0.60 0.69 0.82 1.03 1.26 1.56 1.56 1.47 1.57 1.61 1.99 2.73 3.93 4.12 4.78 4.12 2.91 2.65

GFSFLT1_prec_precacc_297.txt.gz
Total_Precipitation_Accumulation
0.00 0.01 0.03 0.04 0.09 0.38 0.79 1.21 1.76 3.06 2.33 1.45 0.97 0.95 0.92 1.08 1.28 1.42 2.12 1.64 1.90 1.86 1.20 1.05 0.88 0.63 0.51 0.44 0.32 0.26 0.14 0.19
0.01 0.01 0.04 0.03 0.16 0.53 0.85 0.92 1.08 1.12 0.68 0.54 0.54 0.68 1.01 1.05 1.09 1.16 2.31 2.35 1.80 2.31 2.75 1.62 1.39 0.96 0.75 0.79 0.78 0.53 0.44 0.39
0.01 0.05 0.11 0.18 0.33 0.38 0.26 0.15 0.12 0.26 0.35 0.39 0.39 0.44 0.68 0.82 1.37 1.07 1.36 1.94 1.86 1.32 1.66 1.67 1.37 1.11 1.02 0.82 0.60 0.49 0.41 0.58
0.04 0.06 0.07 0.06 0.04 0.10 0.08 0.09 0.09 0.11 0.17 0.26 0.35 0.40 0.50 0.72 1.40 1.47 1.15 1.55 1.44 1.26 1.33 1.51 1.91 1.80 1.41 1.17 0.95 0.70 0.59 0.47
0.01 0.01 0.02 0.01 0.07 0.03 0.09 0.16 0.19 0.15 0.17 0.15 0.18 0.22 0.27 0.43 0.86 1.27 1.35 1.36 1.34 1.42 1.71 1.56 1.43 1.53 1.34 1.09 1.11 1.02 0.86 0.56
0.05 0.10 0.04 0.03 0.04 0.09 0.16 0.18 0.32 0.40 0.40 0.25 0.28 0.24 0.30 0.39 0.69 1.27 1.49 1.76 1.98 1.78 1.80 2.04 1.87 1.51 1.38 1.40 1.10 1.18 1.38 1.06
0.35 0.18 0.04 0.02 0.07 0.14 0.24 0.23 0.32 0.49 0.63 0.59 0.45 0.45 0.36 0.34 0.49 1.13 1.46 1.78 2.31 2.67 2.74 2.68 2.33 1.99 1.92 1.75 1.88 1.71 1.19 1.22
0.19 0.17 0.10 0.09 0.15 0.23 0.36 0.36 0.44 0.59 0.65 0.79 0.70 0.52 0.53 0.41 0.37 0.53 1.08 1.75 2.07 1.97 2.48 2.90 2.96 3.02 2.76 2.38 2.43 2.36 2.09 2.13
0.22 0.20 0.15 0.16 0.16 0.29 0.48 0.54 0.47 0.56 0.58 0.66 0.74 0.68 0.51 0.56 0.54 0.61 0.56 0.95 1.67 2.49 2.24 2.24 2.39 2.28 2.98 3.31 3.24 3.39 3.56 3.55
0.40 0.37 0.22 0.17 0.17 0.27 0.46 0.50 0.40 0.52 0.58 0.62 0.77 0.89 0.83 0.77 1.01 1.17 1.20 1.39 1.75 2.74 3.50 3.40 3.32 3.45 3.08 3.35 3.64 3.62 3.67 3.55
0.63 0.68 0.44 0.25 0.19 0.33 0.46 0.43 0.50 0.72 1.14 1.22 1.30 1.26 1.14 1.11 1.25 1.82 2.13 1.67 2.06 2.11 2.71 3.61 3.94 3.92 3.96 3.72 3.54 3.16 3.30 3.11
0.91 0.96 0.75 0.45 0.31 0.37 0.47 0.54 0.52 0.65 1.07 1.59 1.85 2.07 2.28 2.25 2.20 2.52 2.79 2.39 2.52 3.16 2.94 2.91 3.37 3.51 4.20 4.40 3.99 3.75 3.53 3.30
1.30 1.20 0.87 0.64 0.52 0.41 0.33 0.54 0.83 0.72 0.89 1.61 2.05 2.30 2.76 3.22 3.32 3.32 3.98 4.35 3.69 3.69 3.53 2.85 2.54 2.56 2.97 3.95 3.90 3.48 3.47 3.31
1.44 1.93 1.58 0.95 0.68 0.60 0.52 0.48 0.73 0.86 1.12 1.54 2.51 2.86 2.81 2.98 3.02 3.10 3.55 4.05 3.32 3.47 3.39 3.18 2.76 2.65 2.75 2.77 3.54 3.65 3.06 2.87
1.72 1.97 2.24 1.59 1.39 1.15 0.91 0.75 0.75 0.92 1.00 1.37 1.60 2.07 2.42 2.53 2.82 3.10 3.85 4.01 4.33 4.26 4.27 3.23 2.85 2.66 2.40 2.26 2.34 2.85 3.07 2.76
1.23 1.34 1.92 1.61 1.42 1.25 0.94 0.84 0.85 0.79 0.78 1.01 1.54 1.50 1.80 1.83 1.99 2.41 2.75 3.24 3.72 4.31 4.61 3.93 2.88 2.83 2.81 2.55 2.46 2.47 2.85 3.18
1.37 1.17 1.10 1.05 0.90 0.84 0.76 0.85 0.83 0.96 0.94 0.82 0.93 1.09 1.27 1.55 1.56 1.67 1.78 1.97 2.11 2.62 3.22 4.05 3.80 3.04 3.22 3.01 2.74 2.52 2.60 2.87
1.24 1.08 0.98 0.84 0.62 0.62 0.71 0.66 0.70 0.56 0.86 0.91 0.75 0.86 1.09 1.04 1.28 1.49 1.36 1.33 1.65 1.78 1.93 2.59 3.70 3.69 4.06 3.71 3.58 2.55 2.40 2.56
1.15 0.75 0.58 0.44 0.40 0.41 0.51 0.63 0.57 0.60 0.56 0.55 0.79 0.70 0.60 0.69 0.82 1.03 1.26 1.56 1.56 1.47 1.57 1.61 1.99 2.73 3.93 4.12 4.78 4.12 2.91 2.65